Regional Weather Roundup
Issued by NWS Newport/Morehead, NC

Current Version | Previous Version | Graphics & Text | Print | Product List | Glossary On
Versions: 1 2 3 4 5 6 7 8 9 10 11 12 13 14 15 16 17 18 19 20 21 22 23 24 25 26 27 28 29 30 31 32 33 34 35 36 37 38 39 40 41 42 43 44 45 46 47 48 49 50
000 ASUS42 KMHX 280125 RWRMHX WEATHER ROUNDUP FOR EASTERN NORTH CAROLINA NATIONAL WEATHER SERVICE NEWPORT/MOREHEAD CITY NC 900 PM EDT TUE SEP 27 2016 NOTE: "FAIR" INDICATES FEW OR NO CLOUDS BELOW 12,000 FEET WITH NO SIGNIFICANT WEATHER AND/OR OBSTRUCTIONS TO VISIBILITY NCZ015>017-031-032-045>047-102-103-280200- NORTH COAST CITY SKY/WX TMP DP RH WIND PRES REMARKS EDENTON MOCLDY 72 72 100 SE6 29.92F ELIZABETH CITY CLOUDY 72 68 87 S5 29.92S KITTY HAWK PTCLDY 73 70 91 SE3 29.91S MANTEO PTCLDY 71 68 89 CALM 29.92S $$ NCZ045>047-081-094-103-104-280200- CENTRAL COAST CITY SKY/WX TMP DP RH WIND PRES REMARKS FRISCO CLOUDY 73 69 87 NE5 29.91R $$ NCZ095-097-098-100-101-280200- SOUTHERN COAST CITY SKY/WX TMP DP RH WIND PRES REMARKS BEAUFORT CLEAR 73 70 90 CALM 29.91R CEDAR ISLAND NOT AVBL JACKSONVILLE MOCLDY 72 69 90 CALM 29.91R PINEY ISLAND PTCLDY N/A N/A N/A E5 29.91R WILMINGTON PTCLDY 73 70 90 E3 29.90F $$ NCZ011>013-027>030-043-044-078>080-089-090>093-098-280200- COASTAL PLAIN CITY SKY/WX TMP DP RH WIND PRES REMARKS AHOSKIE CLOUDY 70 69 98 CALM 29.92R CLINTON PTCLDY 70 70 100 CALM 29.91S FOG ELIZABETHTOWN MOCLDY 70 70 100 CALM 29.91S GOLDSBORO MOCLDY 72 72 100 SE3 29.90R GREENVILLE PTCLDY 73 72 94 CALM 29.93S HAVELOCK PTCLDY 72 70 93 CALM 29.92R KENANSVILLE MOCLDY 70 70 100 CALM 29.91S FOG KINSTON PTCLDY 72 72 100 CALM 29.92R NEW BERN CLOUDY 73 70 90 CALM 29.92S RICHLANDS CLOUDY 72 72 100 CALM 29.92R ROCKY MOUNT FOG 68 68 100 CALM 29.91R VSB 1/4 WASHINGTON CLOUDY 71 70 97 CALM 29.92S WHITEVILLE CLEAR 72 68 87 CALM 29.91R $$ AMZ130-135-150-152-154-156-158-170-250-252-270-ANZ085-086-088-633-658-670-280200- MARINE OBSERVATIONS STATION/POSITION TIME TEMP WIND PRES WAVE SWELL AIR SEA DIR/SP/G HT/PER HT/PER (UTC) (F) (DEG/KT/KT) (MB) (FT/S) (FT/S) CHESAPEAKE LIGHT NOT AVBL 64 E VA BEACH 0050 74 74 150/ 6/ 6 1013.3 3/12 3/12 DUCK 0054 75 76 130/ 11/ 12 1012.6 2 E DUCK 0041 76 N/A 3/13 2/13 OREGON INLET 0054 73 77 80/ 5/ 8 1012.8 13E OREGON INLT 0100 76 N/A 4/ 5 3/ 5 HATTERAS CG 0054 74 77 40/ 3/ 5 1012.4 DIAMOND BUOY 0050 78 84 60/ 8/ 10 1011.9 5/ 7 5/ 7 CAPE LOOKOUT 0100 77 50/ 8/ 9 1012.4 BEAUFORT LAB 0054 75 77 40/ 1/ 3 1012.2 30 SE NEW RVR IN 0108 79 83 50/ 8/ 10 1012.5 30 SE NEW RVR IN 0055 83 N/A 4/ 6 2/13 27 SE WRIGHTSVLE 0108 79 81 20/ 8/ 10 1012.8 5 SE WRIGHTSVLE 0008 79 81 70/ 6/ 10 1013.7 225 S CAPE HAT 0050 81 83 240/ 12/ 16 1012.0 5/ 7 3/ 7 41 SE CHARLESTON 0050 80 82 70/ 4/ 6 1011.9 2/ 8 2/ 8 $$

USA.gov is the U.S. government's official web portal to all federal, state and local government web resources and services.